Waarnemingen

Advertentie
Mijn weer
Hoorn-A, Nederland (6212): temperatuur & dauwpunt: 20.09.2017 02:00:00 - 26.09.2017 02:00:00 (CEST)Hoorn-A, Nederland (6212): windsnelheid & windstoten: 20.09.2017 02:00:00 - 26.09.2017 02:00:00 (CEST)Hoorn-A, Nederland (6212): windrichting: 20.09.2017 02:00:00 - 26.09.2017 02:00:00 (CEST)Hoorn-A, Nederland (6212): luchtdruk: 20.09.2017 02:00:00 - 26.09.2017 02:00:00 (CEST)Hoorn-A, Nederland (6212): zicht: 20.09.2017 02:00:00 - 26.09.2017 02:00:00 (CEST)
Datum & Tijd tt [°C] td [°C] ff [km/u] ff [kn] fx [km/u] fx [kn] dd ppp [hPa] vv [km]
26.09.2017 02:00:00 16,0 14,0 16 9 - - - 1022,2 8
26.09.2017 01:00:00 15,9 13,8 24 13 29 16 - 1022,4 8
26.09.2017 00:00:00 15,9 13,8 31 17 29 16 - 1022,4 8
25.09.2017 23:00:00 15,9 13,9 31 17 29 16 - 1022,4 8
25.09.2017 22:00:00 16,2 14,0 28 15 29 16 - 1022,3 9
25.09.2017 21:00:00 16,0 13,6 28 15 36 19 - 1022,2 10
25.09.2017 20:00:00 16,0 13,4 31 17 29 16 - 1022,1 9
25.09.2017 19:00:00 16,0 12,9 29 16 29 16 - 1021,9 10
25.09.2017 18:00:00 15,7 12,8 22 12 25 14 - 1021,9 10
25.09.2017 17:00:00 15,2 12,7 28 15 29 16 - 1021,9 8
25.09.2017 16:00:00 15,7 11,6 26 14 29 16 - 1021,9 10
25.09.2017 15:00:00 15,1 11,9 29 16 32 18 - 1022,0 10
25.09.2017 14:00:00 15,4 12,4 28 15 29 16 - 1022,1 10
25.09.2017 13:00:00 15,1 11,5 28 15 29 16 - 1022,3 10
25.09.2017 12:00:00 15,1 12,7 29 16 29 16 - 1022,2 8
25.09.2017 11:00:00 15,1 13,3 24 13 25 14 - 1022,3 7
25.09.2017 10:00:00 15,2 12,9 22 12 29 16 - 1022,2 10
25.09.2017 09:00:00 15,1 12,7 24 13 25 14 - 1022,2 10
25.09.2017 08:00:00 15,2 13,0 21 11 25 14 - 1022,1 8
25.09.2017 07:00:00 15,0 13,4 29 16 32 18 - 1021,9 8
25.09.2017 06:00:00 14,7 13,4 34 18 36 19 - 1021,6 5
25.09.2017 05:00:00 15,5 13,7 28 15 29 16 - 1021,7 10
25.09.2017 04:00:00 15,7 13,3 24 13 29 16 - 1022,4 10
25.09.2017 03:00:00 15,8 13,2 28 15 32 18 - 1022,5 10
25.09.2017 02:00:00 15,9 12,9 34 18 36 19 - 1022,8 10
25.09.2017 01:00:00 16,2 12,8 31 17 32 18 - 1022,8 10
25.09.2017 00:00:00 16,3 13,0 31 17 32 18 - 1023,0 10
24.09.2017 23:00:00 16,6 12,9 29 16 29 16 - 1023,1 10
24.09.2017 22:00:00 16,8 13,4 26 14 29 16 - 1023,1 10
24.09.2017 21:00:00 16,7 14,0 22 12 25 14 - 1023,0 10
24.09.2017 20:00:00 16,9 13,6 28 15 32 18 - 1022,8 10
24.09.2017 19:00:00 17,0 13,6 35 19 32 18 - 1022,3 10
24.09.2017 18:00:00 16,5 13,9 26 14 25 14 - 1022,7 8
24.09.2017 17:00:00 16,3 13,6 26 14 - - - 1022,8 5
24.09.2017 16:00:00 16,2 13,5 22 12 25 14 - 1023,0 5
24.09.2017 15:00:00 15,7 13,2 22 12 25 14 - 1023,2 4,8
24.09.2017 14:00:00 15,1 13,3 22 12 25 14 - 1023,6 3,0
24.09.2017 13:00:00 14,3 13,1 18 10 22 12 - 1023,6 1,5
24.09.2017 12:00:00 14,3 13,0 21 11 22 12 - 1023,6 1,6
24.09.2017 11:00:00 13,9 12,9 22 12 22 12 - 1023,6 0,9
24.09.2017 10:00:00 15,0 13,1 22 12 25 14 - 1023,6 7
24.09.2017 09:00:00 15,3 13,1 26 14 25 14 - 1023,1 10
24.09.2017 08:00:00 14,9 12,9 24 13 25 14 - 1022,8 10
24.09.2017 07:00:00 14,9 12,5 22 12 22 12 ZO 1022,8 10
24.09.2017 06:00:00 14,8 12,4 22 12 22 12 OZO 1022,8 10
24.09.2017 05:00:00 14,7 11,8 21 11 22 12 - 1022,9 10
24.09.2017 04:00:00 14,8 11,0 22 12 25 14 - 1022,8 10
24.09.2017 03:00:00 14,9 11,3 26 14 25 14 OZO 1023,2 10
24.09.2017 02:00:00 15,1 11,0 24 13 29 16 - 1023,4 10
24.09.2017 01:00:00 15,0 9,7 29 16 29 16 - 1023,3 10
24.09.2017 00:00:00 15,2 10,6 24 13 25 14 - 1023,5 10
23.09.2017 23:00:00 15,5 9,3 22 12 25 14 - 1023,6 10
23.09.2017 22:00:00 15,7 9,3 24 13 25 14 - 1023,8 10
23.09.2017 21:00:00 15,8 9,7 21 11 22 12 - 1023,9 10
23.09.2017 20:00:00 15,7 10,2 9 5 11 6 - 1023,6 10
23.09.2017 19:00:00 15,9 8,5 5 3 7 4 ZZO 1023,7 10
23.09.2017 18:00:00 16,1 10,1 8 4 11 6 - 1023,5 10
23.09.2017 17:00:00 16,0 10,2 11 6 14 8 Z 1023,5 10
23.09.2017 16:00:00 16,2 10,3 13 7 14 8 Z 1023,8 10
23.09.2017 15:00:00 16,0 10,7 16 9 22 12 Z 1024,4 10
23.09.2017 14:00:00 16,0 11,1 18 10 18 10 Z 1024,5 10
23.09.2017 13:00:00 16,2 10,8 16 9 18 10 Z 1024,5 10
23.09.2017 12:00:00 16,0 10,8 16 9 18 10 Z 1024,5 10
23.09.2017 11:00:00 15,9 10,9 16 9 18 10 Z 1024,4 10
23.09.2017 10:00:00 15,8 10,5 16 9 18 10 Z 1024,1 10
23.09.2017 09:00:00 15,7 9,5 13 7 14 8 Z 1023,9 10
23.09.2017 08:00:00 15,5 9,3 13 7 18 10 Z 1023,7 10
23.09.2017 07:00:00 15,4 9,5 11 6 14 8 - 1023,5 10
23.09.2017 06:00:00 15,4 9,1 9 5 14 8 ZZW 1023,3 10
23.09.2017 05:00:00 15,3 8,9 11 6 11 6 - 1023,5 10
23.09.2017 04:00:00 15,3 9,4 9 5 11 6 - 1023,4 10
23.09.2017 03:00:00 15,1 8,9 9 5 11 6 - 1023,5 10
23.09.2017 02:00:00 14,9 8,5 11 6 14 8 - 1023,4 10
23.09.2017 01:00:00 14,9 8,4 11 6 14 8 - 1023,2 10
23.09.2017 00:00:00 14,8 8,0 9 5 14 8 W 1023,0 10
22.09.2017 23:00:00 14,8 7,6 11 6 14 8 W 1022,9 10
22.09.2017 22:00:00 14,9 7,5 8 4 11 6 W 1022,6 10
22.09.2017 21:00:00 15,0 7,7 11 6 18 10 W 1022,6 10
22.09.2017 20:00:00 15,1 8,3 15 8 18 10 W 1022,3 10
22.09.2017 19:00:00 15,2 8,7 11 6 18 10 WNW 1021,6 10
22.09.2017 18:00:00 15,2 9,3 16 9 18 10 WNW 1021,3 10
22.09.2017 17:00:00 15,5 10,2 15 8 18 10 NW 1021,1 10
22.09.2017 16:00:00 15,4 10,7 16 9 22 12 NW 1021,0 10
22.09.2017 15:00:00 15,4 10,9 18 10 22 12 NW 1020,7 10
22.09.2017 14:00:00 15,3 10,9 18 10 22 12 NW 1020,5 10
22.09.2017 13:00:00 15,4 10,9 22 12 22 12 NW 1020,2 10
22.09.2017 12:00:00 15,3 11,3 21 11 22 12 NNW 1020,1 10
22.09.2017 11:00:00 15,3 12,3 16 9 22 12 NNW 1019,7 10
22.09.2017 10:00:00 15,4 12,6 21 11 25 14 NNW 1019,5 10
22.09.2017 09:00:00 15,3 13,4 18 10 25 14 NW 1019,1 10
22.09.2017 08:00:00 15,6 13,7 9 5 14 8 WNW 1018,7 10
22.09.2017 07:00:00 15,9 13,8 13 7 14 8 W 1018,3 10
22.09.2017 06:00:00 15,9 14,0 16 9 18 10 W 1018,2 10
22.09.2017 05:00:00 16,3 13,4 21 11 29 16 - 1018,2 10
22.09.2017 04:00:00 16,7 13,2 24 13 25 14 Z 1018,0 10
22.09.2017 03:00:00 16,8 12,5 28 15 29 16 Z 1018,3 10
22.09.2017 02:00:00 16,8 12,6 28 15 29 16 Z 1018,3 10
22.09.2017 01:00:00 16,9 12,5 31 17 29 16 Z 1018,2 10
22.09.2017 00:00:00 16,9 12,4 31 17 32 18 ZZO 1018,2 10
21.09.2017 23:00:00 17,1 12,1 34 18 32 18 ZZO 1018,3 10
21.09.2017 22:00:00 17,2 12,2 29 16 32 18 ZZO 1018,3 10
21.09.2017 21:00:00 17,5 11,9 34 18 32 18 Z 1018,1 10
21.09.2017 20:00:00 17,4 12,0 35 19 32 18 Z 1017,8 10
21.09.2017 19:00:00 17,4 11,8 35 19 40 21 Z 1017,7 10
21.09.2017 18:00:00 17,3 11,1 37 20 40 21 Z 1017,4 10
21.09.2017 17:00:00 17,1 11,0 41 22 43 23 Z 1017,3 10
21.09.2017 16:00:00 16,9 11,6 41 22 40 21 Z 1017,3 10
21.09.2017 15:00:00 16,5 11,1 41 22 40 21 Z 1017,4 10
21.09.2017 14:00:00 16,3 11,5 41 22 40 21 Z 1017,6 10
21.09.2017 13:00:00 16,0 12,1 39 21 40 21 Z 1017,7 10
21.09.2017 12:00:00 15,8 12,3 39 21 40 21 Z 1018,0 10
21.09.2017 11:00:00 15,6 12,5 39 21 40 21 Z 1017,9 10
21.09.2017 10:00:00 15,5 12,3 39 21 40 21 Z 1017,9 10
21.09.2017 09:00:00 15,6 12,5 39 21 40 21 Z 1017,6 10
21.09.2017 08:00:00 16,3 12,3 35 19 36 19 - 1017,4 10
21.09.2017 07:00:00 16,4 12,0 39 21 36 19 - 1017,4 10
21.09.2017 06:00:00 16,2 12,6 37 20 40 21 - 1017,3 10
21.09.2017 05:00:00 16,5 12,0 39 21 40 21 - 1017,5 10
21.09.2017 04:00:00 16,4 12,5 39 21 40 21 - 1017,7 10
21.09.2017 03:00:00 16,7 12,0 37 20 40 21 - 1017,8 10
21.09.2017 02:00:00 16,7 12,2 39 21 36 19 - 1017,7 10
21.09.2017 01:00:00 16,7 12,8 37 20 36 19 - 1017,6 10
21.09.2017 00:00:00 16,6 12,9 34 18 36 19 - 1017,6 10
20.09.2017 23:00:00 16,6 12,9 34 18 32 18 - 1017,7 10
20.09.2017 22:00:00 16,5 13,1 37 20 36 19 - 1017,9 10
20.09.2017 21:00:00 16,6 12,7 35 19 36 19 - 1018,0 10
20.09.2017 20:00:00 16,4 12,1 31 17 36 19 - 1017,9 10
20.09.2017 19:00:00 16,2 11,7 34 18 32 18 - 1017,8 10
20.09.2017 18:00:00 16,0 11,5 34 18 32 18 - 1017,8 10
20.09.2017 17:00:00 15,9 11,5 31 17 32 18 - 1018,3 10
20.09.2017 16:00:00 15,7 10,5 34 18 32 18 - 1018,3 10
20.09.2017 15:00:00 15,9 10,5 31 17 32 18 - 1018,5 10
20.09.2017 14:00:00 16,0 9,0 28 15 29 16 - 1018,6 10
20.09.2017 13:00:00 15,8 9,2 22 12 25 14 - 1018,8 10
20.09.2017 12:00:00 15,5 8,7 21 11 22 12 - 1019,1 10
20.09.2017 11:00:00 15,2 8,2 18 10 25 14 - 1019,0 10
20.09.2017 10:00:00 15,1 9,0 24 13 25 14 - 1018,8 10
20.09.2017 09:00:00 14,9 8,2 28 15 32 18 W 1018,6 10
20.09.2017 08:00:00 14,9 8,2 31 17 32 18 W 1018,6 10
20.09.2017 07:00:00 14,9 8,4 34 18 32 18 W 1018,4 10
20.09.2017 06:00:00 15,1 8,1 31 17 32 18 W 1018,5 10
20.09.2017 05:00:00 15,0 8,7 34 18 32 18 W 1018,7 10
20.09.2017 04:00:00 15,0 7,9 31 17 32 18 W 1019,0 10
20.09.2017 03:00:00 14,9 8,5 29 16 29 16 W 1019,4 10
20.09.2017 02:00:00 14,7 8,6 28 15 29 16 WNW 1019,5 10

tt = temperatuur
td = dauwpunt
ff = windsnelheid
fx = windstoten
dd = windrichting
ppp = luchtdruk
vv = zicht

Weerstations in de omgeving